EHI
10 8 7 6 4 4 4 4 3 1 0 0 0 0 1 3 5 6 5 3 2 1 0 0 0 1 2 3 4 6 5 3 2 2 1 1 3 5 5 3 2 1 0
11 8 7 7 4 3 3 3 2 1 0 0 0 0 0 2 4 4 3 2 1 1 0 0 0 0 1 2 3 4 4 2 1 1 1 1 2 4 4 3 1 0 0
10 6 6 7 4 2 2 2 2 1 1 0 0 0 0 0 1 2 1 2 2 2 1 1 0 0 0 0 1 2 2 1 1 0 0 0 1 3 4 3 2 1 1
9 6 5 5 3 1 1 2 3 3 3 2 1 0 0 0 0 0 1 2 3 3 2 1 0 0 0 0 0 1 1 1 0 0 0 0 1 3 4 3 2 2 2
10 8 7 6 3 1 1 3 4 4 4 3 2 1 1 1 1 0 1 2 3 3 3 2 1 0 0 0 1 1 1 1 0 0 0 0 1 3 4 2 2 3 4
10 11 12 9 4 2 3 4 3 2 2 2 2 2 2 2 1 0 1 2 2 2 2 2 2 1 0 1 2 2 2 2 1 0 0 1 3 5 4 2 1 4 7
11 14 15 12 7 4 4 5 3 2 1 1 1 1 2 1 1 0 0 1 1 1 2 2 2 1 1 2 3 3 3 3 2 0 0 2 5 8 6 2 2 5 8
11 13 14 12 9 7 6 6 5 3 2 1 0 0 0 0 0 0 1 2 2 2 2 3 3 3 2 3 5 5 4 3 1 0 1 4 10 12 8 4 3 6 7
8 8 8 7 8 7 8 7 6 6 4 2 1 0 0 0 1 1 3 3 3 3 3 4 5 4 3 4 6 7 6 3 1 1 2 6 15 17 10 5 4 5 6
4 4 3 4 5 6 7 8 7 7 6 4 2 1 1 1 2 3 5 6 5 3 4 5 5 4 3 4 7 8 7 5 2 1 2 9 18 18 11 6 4 4 4
2 1 2 4 5 5 7 8 6 5 6 6 5 5 5 5 4 5 7 9 7 5 4 4 4 3 3 4 7 7 6 5 2 0 4 14 22 20 13 8 6 4 4
1 1 2 4 4 5 7 8 5 5 8 8 7 8 9 9 7 7 9 10 9 6 4 4 3 3 3 5 7 6 5 5 3 2 6 18 25 23 16 10 7 6 6
0 1 3 3 3 4 8 9 7 8 10 9 9 10 9 8 7 7 9 10 9 7 5 5 4 4 4 6 6 5 4 5 4 3 9 18 24 23 19 13 8 6 6
2 2 3 5 6 9 12 13 10 9 9 9 11 11 9 8 6 6 6 7 7 6 6 6 5 4 5 5 5 5 5 6 4 4 10 18 23 23 20 15 10 7 6
5 5 6 10 15 16 16 16 12 8 7 8 11 11 10 8 7 6 6 5 3 4 6 7 5 5 5 5 4 4 4 4 3 4 9 16 22 24 21 16 12 8 5
11 10 10 16 21 21 17 15 12 9 7 8 10 11 10 8 8 9 7 4 3 3 6 8 6 5 6 6 4 3 3 2 2 4 7 12 17 19 19 18 16 11 7
18 15 13 16 22 22 18 14 10 8 8 8 9 11 9 8 9 11 10 7 5 5 8 9 7 6 6 7 6 5 4 4 4 4 7 10 12 12 14 17 18 16 13
21 20 16 17 22 24 22 16 9 7 8 9 11 13 12 10 10 11 11 10 8 9 10 9 8 8 7 7 8 9 8 8 7 6 6 9 12 10 9 13 17 17 16
25 26 23 22 25 27 25 19 11 9 11 12 14 17 17 14 12 11 10 9 9 10 11 10 10 11 11 9 8 8 8 10 10 7 6 8 11 10 7 8 12 14 13
31 33 32 29 30 31 28 21 14 13 15 16 17 19 19 15 12 10 7 6 7 9 10 12 13 14 13 10 6 5 6 8 10 9 6 6 8 9 9 8 9 9 9
36 39 38 36 35 34 30 25 19 16 17 18 20 21 19 14 10 9 6 5 6 9 10 12 14 13 11 9 7 5 4 5 8 9 7 6 6 8 11 12 10 8 6
38 40 40 40 39 36 33 28 21 17 16 19 21 22 19 14 10 8 9 8 8 9 11 13 13 12 10 9 8 6 3 3 5 8 8 7 7 9 12 14 14 12 10
37 39 39 41 41 39 35 29 21 17 15 18 21 22 20 16 12 11 11 10 9 10 11 13 13 11 10 9 8 7 5 3 3 6 7 7 8 10 12 14 15 17 18
34 36 40 43 44 42 37 30 24 18 14 15 20 21 19 18 16 15 14 13 12 11 10 11 11 10 11 10 9 8 6 5 3 3 4 5 7 10 12 12 13 17 21
31 34 40 45 46 44 41 35 29 22 16 17 22 23 21 18 17 16 15 14 13 12 12 11 11 12 12 11 9 8 8 7 5 2 1 2 5 9 10 10 10 13 15
29 33 40 46 47 45 43 38 32 26 22 21 24 25 22 19 17 16 14 13 13 13 13 14 14 14 13 11 9 8 8 7 6 4 1 1 3 6 7 8 8 9 11
Wind_Speed
10 11 12 11 11 11 11 11 12 12 12 11 11 10 10 10 10 10 10 10 9 9 9 8 8 7 7 7 7 7 8 8 7 8 8 8 7 7 6 6 6 7 10
13 13 13 12 11 11 11 11 11 11 11 11 10 10 10 9 9 9 9 8 8 8 8 7 8 7 7 7 6 6 6 6 6 6 7 7 6 6 5 5 5 6 10
14 13 13 12 12 12 11 11 11 11 10 10 9 9 9 8 8 8 8 8 7 7 7 7 7 7 6 6 6 6 6 5 5 5 5 4 5 7 7 6 7 9 9
15 13 13 14 12 12 11 11 10 10 9 9 9 8 8 8 8 8 7 7 7 7 7 6 6 6 6 5 5 5 5 5 5 5 4 4 4 7 8 7 7 8 8
15 14 14 14 13 12 11 11 10 10 9 8 8 7 7 7 7 7 6 6 6 6 6 6 6 5 5 4 4 4 4 5 6 6 2 2 3 7 8 8 7 8 8
14 15 15 15 13 12 11 10 10 9 8 7 7 6 6 6 5 5 5 5 6 6 5 5 5 5 5 5 4 4 5 6 6 5 3 3 4 7 8 8 7 7 8
13 14 15 15 13 12 11 10 9 8 8 7 6 6 5 5 5 4 5 5 5 5 5 4 4 4 5 5 6 6 6 7 7 4 3 4 5 8 9 8 8 8 8
13 14 14 15 13 12 11 10 8 7 7 6 5 5 5 5 5 4 5 5 5 5 5 4 4 5 5 5 6 7 7 8 6 4 3 5 8 8 9 8 8 8 8
12 12 12 12 11 12 11 10 8 7 6 5 5 5 5 6 5 5 5 5 5 5 5 5 5 5 5 6 7 8 8 9 7 4 3 4 9 10 9 8 8 9 8
10 11 10 10 10 9 8 10 9 8 7 6 5 5 5 6 6 6 6 5 5 5 5 6 6 6 6 7 8 9 9 8 7 5 2 5 11 10 10 9 8 9 9
8 8 8 9 8 7 8 9 8 8 6 6 4 5 5 3 4 4 5 7 7 6 6 6 7 8 8 8 10 10 8 5 5 3 3 9 11 11 10 9 9 9 9
7 8 7 7 7 5 5 6 4 5 5 4 3 3 3 2 2 2 5 7 7 7 7 7 8 8 8 6 8 10 5 7 5 3 4 13 11 11 11 10 9 9 9
7 6 7 7 5 4 4 4 2 2 3 3 2 2 1 0 1 2 2 3 4 5 4 5 6 5 5 4 3 5 5 4 3 2 6 12 12 12 11 11 10 10 9
6 6 6 7 5 4 3 2 2 2 2 2 3 1 1 0 0 0 1 1 2 2 2 2 2 3 3 3 4 4 4 3 1 2 5 11 12 12 12 11 11 10 10
7 6 6 6 6 4 3 1 1 1 2 2 3 2 1 0 0 1 0 0 1 1 2 1 2 2 2 2 3 3 3 3 2 2 4 9 10 10 11 11 11 11 10
6 6 5 6 6 4 3 1 0 1 2 2 2 2 1 0 1 1 0 1 1 1 1 2 2 2 2 2 3 3 3 2 2 2 4 7 10 10 10 11 11 11 10
6 5 5 6 6 4 3 1 1 1 1 1 2 2 1 0 0 0 1 1 1 2 2 1 2 2 2 3 3 3 3 3 2 1 2 4 5 9 10 10 11 10 11
7 5 3 4 6 4 2 1 1 1 1 1 1 2 1 0 0 1 1 1 1 2 1 1 1 1 1 2 2 2 2 2 3 3 3 3 3 4 8 10 10 10 10
7 6 4 3 5 4 3 1 0 1 1 1 1 1 1 0 1 1 0 1 1 1 1 2 0 1 1 1 2 2 2 2 3 4 4 4 4 4 4 7 10 10 10
8 6 5 4 4 3 3 2 1 1 1 1 1 1 1 0 0 1 0 1 2 1 1 1 1 1 1 1 3 2 2 2 2 3 3 3 4 5 5 5 6 7 9
8 7 5 4 4 2 2 1 1 1 1 1 1 1 1 0 0 0 1 1 1 1 1 2 2 1 1 1 1 1 1 2 2 2 2 2 3 4 5 5 5 4 5
8 7 6 4 4 3 2 1 1 1 1 2 1 1 1 1 0 0 1 1 1 0 1 2 1 1 1 0 1 1 1 1 1 3 2 2 2 2 3 5 4 5 4
9 8 6 5 4 3 3 2 1 1 0 1 1 1 1 1 0 1 1 1 2 1 1 1 1 1 1 1 0 1 0 1 1 0 1 1 2 2 2 3 4 4 5
9 9 7 6 4 4 3 2 2 2 1 1 1 1 1 0 0 1 1 1 1 1 1 1 0 1 1 1 1 1 1 0 0 0 1 0 1 2 2 2 3 3 4
10 10 8 6 5 4 3 2 2 1 1 1 1 1 1 1 0 0 0 1 1 1 1 2 1 1 0 1 2 1 0 0 1 1 1 1 1 1 2 1 1 2 3
9 9 9 7 5 4 4 3 2 1 0 0 0 1 1 1 1 0 0 1 1 1 1 1 1 1 1 1 2 2 1 0 0 1 1 1 1 1 2 1 1 2 2
Wind_Direction
103 109 113 109 109 108 106 105 106 107 110 111 112 113 114 114 114 112 114 117 122 125 129 129 128 125 119 111 107 104 106 110 114 111 113 113 113 118 121 124 126 111 113
109 111 114 109 108 105 103 103 105 106 109 109 110 113 114 113 115 116 116 118 123 125 125 130 132 131 127 121 119 117 119 125 129 131 132 131 128 132 135 123 109 114 120
109 115 115 110 109 106 103 103 103 104 108 111 110 113 117 118 119 122 123 123 125 126 126 129 131 131 130 128 131 131 135 144 154 159 164 163 146 141 136 126 123 124 127
111 116 114 114 112 110 107 104 103 105 108 113 113 116 120 121 123 126 128 129 129 128 129 129 129 132 130 133 143 149 156 173 185 196 199 186 155 140 140 139 140 138 138
112 114 116 120 118 115 113 110 107 106 107 111 113 117 120 122 126 130 133 134 134 134 135 136 136 137 138 146 161 176 186 202 214 229 220 142 117 139 142 147 152 151 150
112 116 121 125 124 121 120 118 116 113 110 113 117 120 125 128 127 132 138 139 142 142 143 146 149 153 159 165 185 206 220 230 236 230 195 159 140 150 153 155 160 160 158
112 118 128 130 129 129 127 125 124 121 122 126 131 133 135 137 140 143 149 148 146 149 152 158 163 169 181 189 202 219 234 247 248 237 189 154 143 156 160 163 166 164 163
112 117 127 132 133 133 133 133 132 130 130 134 140 147 149 149 156 159 163 161 160 163 168 177 183 188 195 206 215 228 241 256 250 234 185 147 150 157 164 167 171 171 170
115 121 129 133 134 137 139 138 138 140 140 141 145 155 164 170 174 174 173 172 175 180 186 194 201 205 211 220 226 234 243 253 268 250 206 149 158 164 167 171 177 177 176
114 122 129 134 136 142 141 145 145 146 147 148 149 159 174 179 183 185 182 184 190 193 196 204 212 217 221 228 235 240 244 253 250 242 172 155 164 167 171 177 182 183 182
111 118 123 129 134 141 142 143 150 151 154 157 166 177 179 188 182 187 184 181 192 201 206 213 220 225 228 229 234 238 243 245 240 230 153 155 166 173 178 184 187 189 190
114 115 118 121 127 137 131 134 153 151 153 173 164 178 193 203 183 168 164 184 196 207 214 221 227 228 231 228 223 223 233 234 231 221 158 161 168 178 183 186 188 191 195
116 110 115 113 115 112 109 137 140 142 142 156 136 144 148 173 155 147 161 181 202 209 219 217 221 226 222 219 207 204 226 236 225 188 156 165 168 178 186 188 190 195 197
116 109 106 113 107 91 90 103 101 114 131 134 131 112 113 141 320 168 190 170 192 199 204 214 224 225 225 211 206 214 222 224 228 133 161 166 170 179 186 191 195 197 199
117 115 113 112 104 97 77 53 96 94 108 113 113 120 78 77 357 360 16 16 258 234 193 217 236 232 228 226 222 217 221 227 230 178 158 170 174 179 186 191 196 200 201
117 111 110 113 109 108 107 88 60 73 85 84 99 107 108 53 30 358 347 293 298 272 236 229 228 217 217 220 228 222 225 226 224 185 165 178 183 183 187 192 196 200 203
116 115 125 128 117 115 123 163 125 73 78 92 95 100 99 57 61 318 279 260 277 276 258 233 242 229 225 222 214 212 212 216 223 215 186 170 183 192 195 197 199 202 206
127 122 123 125 124 129 132 155 114 116 109 102 108 113 112 5 18 314 298 317 300 287 297 257 264 251 238 232 213 218 211 194 200 199 200 192 185 185 197 197 201 203 205
133 133 132 116 124 139 136 137 206 111 98 94 85 84 113 82 333 285 316 319 302 294 310 301 335 272 271 263 224 203 210 202 200 209 202 196 181 170 173 187 200 203 205
134 133 133 121 117 134 136 152 186 147 128 106 97 80 97 73 345 321 311 329 310 336 340 326 305 265 262 266 272 225 212 210 204 209 217 198 182 185 181 174 186 200 200
139 139 139 138 130 135 142 173 181 185 174 141 137 133 129 37 4 351 334 324 330 356 326 321 317 296 265 269 293 280 244 221 202 205 212 200 190 183 170 172 181 184 190
146 147 147 150 146 154 150 165 182 167 170 153 124 136 144 134 310 281 281 300 345 348 319 306 305 314 302 213 211 292 273 236 241 216 192 198 201 187 176 180 184 183 179
153 156 155 150 150 153 152 158 152 131 140 126 157 166 169 169 192 315 347 333 329 309 268 269 287 296 303 298 215 179 234 255 296 263 218 184 185 181 187 172 177 172 176
158 155 148 148 149 149 167 168 175 181 183 182 185 176 154 154 308 316 343 322 325 328 334 298 98 306 313 302 283 216 213 145 216 293 307 270 203 189 199 195 176 167 162
161 156 149 146 152 155 173 162 188 190 190 167 154 152 169 163 213 303 6 314 314 315 345 344 10 352 4 310 298 297 239 226 233 217 248 253 272 223 191 193 163 161 160
158 153 147 146 151 160 170 166 195 187 158 23 179 136 203 168 174 230 140 326 318 332 347 319 320 315 323 314 310 309 294 259 223 238 247 237 234 250 227 185 178 171 180